Time,TemperatureF,DewpointF,PressureIn,WindDirection,WindDirectionDegrees,WindSpeedMPH,WindSpeedGustMPH,Humidity,HourlyPrecipIn,Conditions,Clouds,dailyrainin,SolarRadiationWatts/m^2,SoftwareType,DateUTC
2013-11-30 00:00:00,26.6,20.1,30.61,SSE,149,0.0,6.0,76,0.00,,,0.00,0.00,VWS V14.01,2013-11-30 05:00:00,
2013-11-30 00:01:00,26.6,20.1,30.61,SSE,149,1.5,6.0,76,0.00,,,0.00,0.00,VWS V14.01,2013-11-30 05:01:00,
2013-11-30 00:06:00,26.6,19.8,30.61,East,89,0.0,6.0,75,0.00,,,0.00,0.00,VWS V14.01,2013-11-30 05:06:00,
2013-11-30 00:11:00,26.7,19.9,30.61,ESE,111,4.5,9.0,75,0.00,,,0.00,0.00,VWS V14.01,2013-11-30 05:11:00,
2013-11-30 00:15:00,26.7,19.9,30.60,SSE,159,3.0,9.0,75,0.00,,,0.00,0.00,VWS V14.01,2013-11-30 05:15:00,
2013-11-30 00:16:00,26.7,19.9,30.60,SE,125,1.5,4.5,75,0.00,,,0.00,0.00,VWS V14.01,2013-11-30 05:16:00,
2013-11-30 00:21:00,26.6,19.8,30.60,ESE,122,1.5,7.5,75,0.00,,,0.00,0.00,VWS V14.01,2013-11-30 05:21:00,
2013-11-30 00:26:00,26.6,19.8,30.60,ESE,108,1.5,7.5,75,0.00,,,0.00,0.00,VWS V14.01,2013-11-30 05:26:00,
2013-11-30 00:30:00,26.7,19.9,30.60,SSE,147,6.0,9.0,75,0.00,,,0.00,0.00,VWS V14.01,2013-11-30 05:30:00,
2013-11-30 00:31:00,26.7,19.9,30.60,ESE,117,1.5,6.0,75,0.00,,,0.00,0.00,VWS V14.01,2013-11-30 05:31:00,
2013-11-30 00:36:00,26.7,19.9,30.60,SSE,148,3.0,9.0,75,0.00,,,0.00,0.00,VWS V14.01,2013-11-30 05:36:00,
2013-11-30 00:41:00,26.7,19.9,30.59,South,180,1.5,9.0,75,0.00,,,0.00,0.00,VWS V14.01,2013-11-30 05:41:00,
2013-11-30 00:45:00,26.7,19.5,30.59,SSE,153,4.5,9.0,74,0.00,,,0.00,0.00,VWS V14.01,2013-11-30 05:45:00,
2013-11-30 00:46:00,26.7,19.5,30.59,SE,129,1.5,4.5,74,0.00,,,0.00,0.00,VWS V14.01,2013-11-30 05:46:00,
2013-11-30 00:51:00,26.7,19.5,30.59,SE,135,3.0,9.0,74,0.00,,,0.00,0.00,VWS V14.01,2013-11-30 05:51:00,
2013-11-30 00:56:00,26.7,19.5,30.59,ENE,77,1.5,9.0,74,0.00,,,0.00,0.00,VWS V14.01,2013-11-30 05:56:00,
2013-11-30 01:00:00,26.7,19.5,30.59,SSE,150,3.0,9.0,74,0.00,,,0.00,0.00,VWS V14.01,2013-11-30 06:00:00,
2013-11-30 01:01:00,26.7,19.5,30.59,SE,139,4.5,4.5,74,0.00,,,0.00,0.00,VWS V14.01,2013-11-30 06:01:00,
2013-11-30 01:06:00,26.7,19.5,30.58,SE,124,3.0,6.0,74,0.00,,,0.00,0.00,VWS V14.01,2013-11-30 06:06:00,
2013-11-30 01:11:00,26.8,19.6,30.58,SE,143,6.0,7.5,74,0.00,,,0.00,0.00,VWS V14.01,2013-11-30 06:11:00,
2013-11-30 01:15:00,27.0,19.8,30.58,ENE,67,1.5,12.0,74,0.00,,,0.00,0.00,VWS V14.01,2013-11-30 06:15:00,
2013-11-30 01:16:00,27.0,19.8,30.58,SE,135,1.5,1.5,74,0.00,,,0.00,0.00,VWS V14.01,2013-11-30 06:16:00,
2013-11-30 01:21:00,27.1,19.6,30.58,SE,127,3.0,12.0,73,0.00,,,0.00,0.00,VWS V14.01,2013-11-30 06:21:00,
2013-11-30 01:26:00,27.1,19.9,30.58,SE,129,3.0,12.0,74,0.00,,,0.00,0.00,VWS V14.01,2013-11-30 06:26:00,
2013-11-30 01:30:00,27.2,19.7,30.57,SE,139,3.0,13.5,73,0.00,,,0.00,0.00,VWS V14.01,2013-11-30 06:30:00,
2013-11-30 01:31:00,27.2,19.7,30.57,SE,146,3.0,7.5,73,0.00,,,0.00,0.00,VWS V14.01,2013-11-30 06:31:00,
2013-11-30 01:36:00,27.3,19.8,30.57,SE,134,3.0,9.0,73,0.00,,,0.00,0.00,VWS V14.01,2013-11-30 06:36:00,
2013-11-30 01:41:00,27.4,19.9,30.57,SE,134,4.5,13.5,73,0.00,,,0.00,0.00,VWS V14.01,2013-11-30 06:41:00,
2013-11-30 01:45:00,27.4,19.9,30.57,SW,226,3.0,15.0,73,0.00,,,0.00,0.00,VWS V14.01,2013-11-30 06:45:00,
2013-11-30 01:46:00,27.4,19.9,30.56,ESE,107,3.0,3.0,73,0.00,,,0.00,0.00,VWS V14.01,2013-11-30 06:46:00,
2013-11-30 01:51:00,27.4,19.9,30.56,SSE,164,3.0,12.0,73,0.00,,,0.00,0.00,VWS V14.01,2013-11-30 06:51:00,
2013-11-30 01:56:00,27.5,20.0,30.56,NE,46,3.0,13.5,73,0.00,,,0.00,0.00,VWS V14.01,2013-11-30 06:56:00,
2013-11-30 02:00:00,27.6,20.1,30.56,East,96,3.0,13.5,73,0.00,,,0.00,0.00,VWS V14.01,2013-11-30 07:00:00,
2013-11-30 02:01:00,27.6,20.1,30.56,SE,125,7.5,10.5,73,0.00,,,0.00,0.00,VWS V14.01,2013-11-30 07:01:00,
2013-11-30 02:06:00,27.7,19.9,30.56,SE,131,6.0,13.5,72,0.00,,,0.00,0.00,VWS V14.01,2013-11-30 07:06:00,
2013-11-30 02:11:00,27.8,20.0,30.56,NNE,16,3.0,18.0,72,0.00,,,0.00,0.00,VWS V14.01,2013-11-30 07:11:00,
2013-11-30 02:15:00,27.8,20.0,30.56,ESE,103,1.5,18.0,72,0.00,,,0.00,0.00,VWS V14.01,2013-11-30 07:15:00,
2013-11-30 02:16:00,27.8,20.0,30.56,East,101,0.0,1.5,72,0.00,,,0.00,0.00,VWS V14.01,2013-11-30 07:16:00,
2013-11-30 02:21:00,27.9,20.1,30.56,South,181,3.0,13.5,72,0.00,,,0.00,0.00,VWS V14.01,2013-11-30 07:21:00,
2013-11-30 02:26:00,27.9,20.1,30.56,ESE,103,3.0,13.5,72,0.00,,,0.00,0.00,VWS V14.01,2013-11-30 07:26:00,
2013-11-30 02:30:00,27.9,20.1,30.56,SE,136,1.5,13.5,72,0.00,,,0.00,0.00,VWS V14.01,2013-11-30 07:30:00,
2013-11-30 02:31:00,27.9,20.1,30.56,ESE,105,1.5,3.0,72,0.00,,,0.00,0.00,VWS V14.01,2013-11-30 07:31:00,
2013-11-30 02:36:00,28.0,19.8,30.56,SSE,151,6.0,16.5,71,0.00,,,0.00,0.00,VWS V14.01,2013-11-30 07:36:00,
2013-11-30 02:41:00,28.1,19.9,30.56,ESE,106,1.5,16.5,71,0.00,,,0.00,0.00,VWS V14.01,2013-11-30 07:41:00,
2013-11-30 02:45:00,28.1,19.9,30.57,SSE,150,3.0,16.5,71,0.00,,,0.00,0.00,VWS V14.01,2013-11-30 07:45:00,
2013-11-30 02:46:00,28.1,19.9,30.57,SSW,193,1.5,3.0,71,0.00,,,0.00,0.00,VWS V14.01,2013-11-30 07:46:00,
2013-11-30 02:51:00,28.1,19.6,30.56,SSE,147,0.0,13.5,70,0.00,,,0.00,0.00,VWS V14.01,2013-11-30 07:51:00,
2013-11-30 02:56:00,28.1,19.9,30.56,SSE,150,6.0,13.5,71,0.00,,,0.00,0.00,VWS V14.01,2013-11-30 07:56:00,
2013-11-30 03:00:00,28.2,19.7,30.56,SSE,159,4.5,13.5,70,0.00,,,0.00,0.00,VWS V14.01,2013-11-30 08:00:00,
2013-11-30 03:01:00,28.2,19.7,30.56,SE,141,4.5,4.5,70,0.00,,,0.00,0.00,VWS V14.01,2013-11-30 08:01:00,
2013-11-30 03:06:00,28.2,19.7,30.56,SE,136,7.5,18.0,70,0.00,,,0.00,0.00,VWS V14.01,2013-11-30 08:06:00,
2013-11-30 03:11:00,28.3,19.8,30.56,SE,127,9.0,18.0,70,0.00,,,0.00,0.00,VWS V14.01,2013-11-30 08:11:00,
2013-11-30 03:15:00,28.3,19.8,30.56,East,97,1.5,18.0,70,0.00,,,0.00,0.00,VWS V14.01,2013-11-30 08:15:00,
2013-11-30 03:16:00,28.3,19.8,30.56,East,100,1.5,1.5,70,0.00,,,0.00,0.00,VWS V14.01,2013-11-30 08:16:00,
2013-11-30 03:21:00,28.2,19.7,30.55,NE,39,3.0,10.5,70,0.00,,,0.00,0.00,VWS V14.01,2013-11-30 08:21:00,
2013-11-30 03:26:00,28.3,19.8,30.55,SE,139,6.0,15.0,70,0.00,,,0.00,0.00,VWS V14.01,2013-11-30 08:26:00,
2013-11-30 03:30:00,28.3,19.8,30.55,SE,137,3.0,15.0,70,0.00,,,0.00,0.00,VWS V14.01,2013-11-30 08:30:00,
2013-11-30 03:31:00,28.3,19.8,30.55,SE,137,3.0,15.0,70,0.00,,,0.00,0.00,VWS V14.01,2013-11-30 08:31:00,
2013-11-30 03:36:00,28.3,19.8,30.55,ENE,63,1.5,12.0,70,0.00,,,0.00,0.00,VWS V14.01,2013-11-30 08:36:00,
2013-11-30 03:41:00,28.4,19.5,30.54,SSE,148,3.0,16.5,69,0.00,,,0.00,0.00,VWS V14.01,2013-11-30 08:41:00,
2013-11-30 03:45:00,28.4,19.5,30.54,SSE,156,6.0,16.5,69,0.00,,,0.00,0.00,VWS V14.01,2013-11-30 08:45:00,
2013-11-30 03:46:00,28.4,19.5,30.54,SSE,156,6.0,16.5,69,0.00,,,0.00,0.00,VWS V14.01,2013-11-30 08:46:00,
2013-11-30 03:51:00,28.4,19.9,30.54,ESE,121,1.5,9.0,70,0.00,,,0.00,0.00,VWS V14.01,2013-11-30 08:51:00,
2013-11-30 03:56:00,28.5,19.6,30.54,ESE,109,3.0,15.0,69,0.00,,,0.00,0.00,VWS V14.01,2013-11-30 08:56:00,
2013-11-30 04:00:00,28.5,19.6,30.53,ESE,119,4.5,15.0,69,0.00,,,0.00,0.00,VWS V14.01,2013-11-30 09:00:00,
2013-11-30 04:01:00,28.5,19.6,30.53,SE,131,3.0,15.0,69,0.00,,,0.00,0.00,VWS V14.01,2013-11-30 09:01:00,
2013-11-30 04:05:00,28.6,19.7,30.53,ESE,105,3.0,15.0,69,0.00,,,0.00,0.00,VWS V14.01,2013-11-30 09:05:00,
2013-11-30 04:10:00,28.6,20.1,30.53,SE,128,6.0,16.5,70,0.00,,,0.00,0.00,VWS V14.01,2013-11-30 09:10:00,
2013-11-30 04:15:00,28.5,20.0,30.53,ENE,64,4.5,16.5,70,0.00,,,0.00,0.00,VWS V14.01,2013-11-30 09:15:00,
2013-11-30 04:20:00,28.5,20.0,30.53,SE,141,1.5,16.5,70,0.00,,,0.00,0.00,VWS V14.01,2013-11-30 09:20:00,
2013-11-30 04:25:00,28.5,20.0,30.53,SE,143,10.5,16.5,70,0.00,,,0.00,0.00,VWS V14.01,2013-11-30 09:25:00,
2013-11-30 04:30:00,28.5,20.0,30.53,ESE,121,4.5,16.5,70,0.00,,,0.00,0.00,VWS V14.01,2013-11-30 09:30:00,
2013-11-30 04:35:00,28.5,20.0,30.53,SE,143,10.5,13.5,70,0.00,,,0.00,0.00,VWS V14.01,2013-11-30 09:35:00,
2013-11-30 04:40:00,28.5,20.0,30.52,East,96,3.0,13.5,70,0.00,,,0.00,0.00,VWS V14.01,2013-11-30 09:40:00,
2013-11-30 04:45:00,28.5,20.0,30.52,SE,126,0.0,13.5,70,0.00,,,0.00,0.00,VWS V14.01,2013-11-30 09:45:00,
2013-11-30 04:50:00,28.5,20.3,30.52,SE,129,4.5,7.5,71,0.00,,,0.00,0.00,VWS V14.01,2013-11-30 09:50:00,
2013-11-30 04:55:00,28.5,20.3,30.52,SE,140,3.0,13.5,71,0.00,,,0.00,0.00,VWS V14.01,2013-11-30 09:55:00,
2013-11-30 05:00:00,28.4,20.2,30.52,South,169,1.5,13.5,71,0.00,,,0.00,0.00,VWS V14.01,2013-11-30 10:00:00,
2013-11-30 05:05:00,28.3,20.4,30.52,SSE,151,6.0,10.5,72,0.00,,,0.00,0.00,VWS V14.01,2013-11-30 10:05:00,
2013-11-30 05:10:00,28.3,20.4,30.51,SSE,157,3.0,10.5,72,0.00,,,0.00,0.00,VWS V14.01,2013-11-30 10:10:00,
2013-11-30 05:15:00,28.3,20.4,30.51,South,177,0.0,10.5,72,0.00,,,0.00,0.00,VWS V14.01,2013-11-30 10:15:00,
2013-11-30 05:20:00,28.3,20.4,30.51,SE,128,1.5,9.0,72,0.00,,,0.00,0.00,VWS V14.01,2013-11-30 10:20:00,
2013-11-30 05:25:00,28.3,20.4,30.51,East,91,1.5,9.0,72,0.00,,,0.00,0.00,VWS V14.01,2013-11-30 10:25:00,
2013-11-30 05:30:00,28.2,20.7,30.51,ESE,116,6.0,13.5,73,0.00,,,0.00,0.00,VWS V14.01,2013-11-30 10:30:00,
2013-11-30 05:35:00,28.2,20.4,30.50,SE,127,4.5,13.5,72,0.00,,,0.00,0.00,VWS V14.01,2013-11-30 10:35:00,
2013-11-30 05:40:00,28.2,20.7,30.50,ESE,103,1.5,15.0,73,0.00,,,0.00,0.00,VWS V14.01,2013-11-30 10:40:00,
2013-11-30 05:45:00,28.2,20.7,30.50,SSE,147,1.5,15.0,73,0.00,,,0.00,0.00,VWS V14.01,2013-11-30 10:45:00,
2013-11-30 05:50:00,28.2,20.7,30.50,ENE,65,7.5,16.5,73,0.00,,,0.00,0.00,VWS V14.01,2013-11-30 10:50:00,
2013-11-30 05:55:00,28.2,20.7,30.49,SE,137,13.5,16.5,73,0.00,,,0.00,0.00,VWS V14.01,2013-11-30 10:55:00,
2013-11-30 06:00:00,28.2,20.7,30.49,SSE,148,3.0,19.5,73,0.00,,,0.00,0.00,VWS V14.01,2013-11-30 11:00:00,
2013-11-30 06:05:00,28.2,20.7,30.49,ESE,117,3.0,12.0,73,0.00,,,0.00,0.00,VWS V14.01,2013-11-30 11:05:00,
2013-11-30 06:10:00,28.1,20.9,30.49,ENE,62,3.0,12.0,74,0.00,,,0.00,0.00,VWS V14.01,2013-11-30 11:10:00,
2013-11-30 06:15:00,28.1,20.9,30.49,ESE,111,1.5,16.5,74,0.00,,,0.00,0.00,VWS V14.01,2013-11-30 11:15:00,
2013-11-30 06:20:00,28.1,20.9,30.49,South,184,4.5,15.0,74,0.00,,,0.00,0.00,VWS V14.01,2013-11-30 11:20:00,
2013-11-30 06:25:00,28.1,20.9,30.48,SE,133,4.5,15.0,74,0.00,,,0.00,0.00,VWS V14.01,2013-11-30 11:25:00,
2013-11-30 06:30:00,28.1,20.9,30.48,ESE,120,0.0,15.0,74,0.00,,,0.00,0.00,VWS V14.01,2013-11-30 11:30:00,
2013-11-30 06:35:00,28.0,20.8,30.48,South,185,3.0,12.0,74,0.00,,,0.00,0.00,VWS V14.01,2013-11-30 11:35:00,
2013-11-30 06:40:00,28.0,20.8,30.47,SE,138,0.0,15.0,74,0.00,,,0.00,0.00,VWS V14.01,2013-11-30 11:40:00,
2013-11-30 06:45:00,27.9,21.0,30.48,SE,131,3.0,15.0,75,0.00,,,0.00,0.00,VWS V14.01,2013-11-30 11:45:00,
2013-11-30 06:50:00,27.9,21.0,30.48,SE,132,0.0,9.0,75,0.00,,,0.00,0.00,VWS V14.01,2013-11-30 11:50:00,
2013-11-30 06:55:00,27.9,21.0,30.48,SE,141,7.5,9.0,75,0.00,,,0.00,0.00,VWS V14.01,2013-11-30 11:55:00,
2013-11-30 07:00:00,27.9,20.7,30.47,ESE,109,3.0,12.0,74,0.00,,,0.00,0.00,VWS V14.01,2013-11-30 12:00:00,
2013-11-30 07:05:00,27.9,21.0,30.47,ESE,109,1.5,7.5,75,0.00,,,0.00,0.00,VWS V14.01,2013-11-30 12:05:00,
2013-11-30 07:10:00,27.9,21.0,30.47,ESE,104,3.0,9.0,75,0.00,,,0.00,0.00,VWS V14.01,2013-11-30 12:10:00,
2013-11-30 07:15:00,27.9,21.0,30.47,SE,128,1.5,9.0,75,0.00,,,0.00,0.00,VWS V14.01,2013-11-30 12:15:00,
2013-11-30 07:20:00,27.9,21.0,30.47,SSE,153,1.5,13.5,75,0.00,,,0.00,0.00,VWS V14.01,2013-11-30 12:20:00,
2013-11-30 07:25:00,27.9,21.0,30.47,SE,136,0.0,13.5,75,0.00,,,0.00,0.00,VWS V14.01,2013-11-30 12:25:00,
2013-11-30 07:30:00,27.9,21.0,30.47,SSW,199,0.0,13.5,75,0.00,,,0.00,0.00,VWS V14.01,2013-11-30 12:30:00,
2013-11-30 07:35:00,27.8,20.9,30.46,SE,126,6.0,9.0,75,0.00,,,0.00,0.00,VWS V14.01,2013-11-30 12:35:00,
2013-11-30 07:40:00,27.8,20.9,30.46,SE,125,1.5,9.0,75,0.00,,,0.00,0.00,VWS V14.01,2013-11-30 12:40:00,
2013-11-30 07:45:00,27.8,20.9,30.46,SE,127,10.5,16.5,75,0.00,,,0.00,0.00,VWS V14.01,2013-11-30 12:45:00,
2013-11-30 07:50:00,27.8,20.9,30.46,South,172,0.0,9.0,75,0.00,,,0.00,0.00,VWS V14.01,2013-11-30 12:50:00,
2013-11-30 07:55:00,27.7,20.8,30.46,ENE,68,10.5,12.0,75,0.00,,,0.00,0.00,VWS V14.01,2013-11-30 12:55:00,
2013-11-30 08:00:00,27.7,20.8,30.46,South,173,0.0,15.0,75,0.00,,,0.00,0.00,VWS V14.01,2013-11-30 13:00:00,
2013-11-30 08:05:00,27.8,20.9,30.45,ESE,104,9.0,9.0,75,0.00,,,0.00,0.00,VWS V14.01,2013-11-30 13:05:00,
2013-11-30 08:10:00,27.8,20.9,30.45,South,178,1.5,15.0,75,0.00,,,0.00,0.00,VWS V14.01,2013-11-30 13:10:00,
2013-11-30 08:15:00,27.8,20.9,30.45,SE,144,3.0,15.0,75,0.00,,,0.00,0.00,VWS V14.01,2013-11-30 13:15:00,
2013-11-30 08:20:00,27.9,21.0,30.45,SSE,156,1.5,9.0,75,0.00,,,0.00,0.00,VWS V14.01,2013-11-30 13:20:00,
2013-11-30 08:25:00,27.9,21.0,30.45,SW,217,12.0,19.5,75,0.00,,,0.00,0.00,VWS V14.01,2013-11-30 13:25:00,
2013-11-30 08:30:00,27.9,21.0,30.45,ESE,112,6.0,19.5,75,0.00,,,0.00,0.00,VWS V14.01,2013-11-30 13:30:00,
2013-11-30 08:35:00,27.9,21.0,30.45,South,186,0.0,12.0,75,0.00,,,0.00,0.00,VWS V14.01,2013-11-30 13:35:00,
2013-11-30 08:40:00,28.0,20.8,30.45,South,170,0.0,12.0,74,0.00,,,0.00,0.00,VWS V14.01,2013-11-30 13:40:00,
2013-11-30 08:45:00,28.1,20.9,30.45,ESE,122,3.0,12.0,74,0.00,,,0.00,0.00,VWS V14.01,2013-11-30 13:45:00,
2013-11-30 08:50:00,28.3,21.4,30.45,WSW,245,6.0,7.5,75,0.00,,,0.00,0.00,VWS V14.01,2013-11-30 13:50:00,
2013-11-30 08:55:00,28.4,21.2,30.45,North,11,4.5,10.5,74,0.00,,,0.00,0.00,VWS V14.01,2013-11-30 13:55:00,
2013-11-30 09:00:00,28.6,21.4,30.44,ENE,58,3.0,13.5,74,0.00,,,0.00,0.00,VWS V14.01,2013-11-30 14:00:00,
2013-11-30 09:05:00,28.8,21.6,30.44,SE,139,3.0,12.0,74,0.00,,,0.00,0.00,VWS V14.01,2013-11-30 14:05:00,
2013-11-30 09:10:00,29.0,21.8,30.44,ESE,123,1.5,12.0,74,0.00,,,0.00,0.00,VWS V14.01,2013-11-30 14:10:00,
2013-11-30 09:15:00,29.2,21.6,30.44,SE,142,9.0,15.0,73,0.00,,,0.00,0.00,VWS V14.01,2013-11-30 14:15:00,
2013-11-30 09:20:00,29.4,21.5,30.43,SE,125,4.5,13.5,72,0.00,,,0.00,0.00,VWS V14.01,2013-11-30 14:20:00,
2013-11-30 09:25:00,29.7,21.8,30.44,SE,128,3.0,13.5,72,0.00,,,0.00,0.00,VWS V14.01,2013-11-30 14:25:00,
2013-11-30 09:30:00,30.0,21.8,30.44,South,169,0.0,13.5,71,0.00,,,0.00,0.00,VWS V14.01,2013-11-30 14:30:00,
2013-11-30 09:35:00,30.2,22.3,30.44,SE,131,0.0,12.0,72,0.00,,,0.00,0.00,VWS V14.01,2013-11-30 14:35:00,
2013-11-30 09:40:00,30.4,22.1,30.44,SSW,193,3.0,12.0,71,0.00,,,0.00,0.00,VWS V14.01,2013-11-30 14:40:00,
2013-11-30 09:45:00,30.6,22.0,30.44,SSW,211,0.0,12.0,70,0.00,,,0.00,0.00,VWS V14.01,2013-11-30 14:45:00,
2013-11-30 09:50:00,30.8,22.5,30.44,SW,216,1.5,4.5,71,0.00,,,0.00,0.00,VWS V14.01,2013-11-30 14:50:00,
2013-11-30 09:55:00,31.0,22.4,30.44,South,172,1.5,6.0,70,0.00,,,0.00,0.00,VWS V14.01,2013-11-30 14:55:00,
2013-11-30 10:00:00,31.1,22.1,30.44,WSW,244,0.0,6.0,69,0.00,,,0.00,0.00,VWS V14.01,2013-11-30 15:00:00,
2013-11-30 10:05:00,31.4,22.4,30.44,SSE,160,0.0,7.5,69,0.00,,,0.00,0.00,VWS V14.01,2013-11-30 15:05:00,
2013-11-30 10:10:00,31.8,23.1,30.43,SW,231,0.0,7.5,70,0.00,,,0.00,0.00,VWS V14.01,2013-11-30 15:10:00,
2013-11-30 10:15:00,32.1,22.8,30.43,SE,145,1.5,12.0,68,0.00,,,0.00,0.00,VWS V14.01,2013-11-30 15:15:00,
2013-11-30 10:20:00,32.5,23.1,30.43,ESE,113,4.5,4.5,68,0.00,,,0.00,0.00,VWS V14.01,2013-11-30 15:20:00,
2013-11-30 10:25:00,32.9,23.5,30.43,SE,138,1.5,6.0,68,0.00,,,0.00,0.00,VWS V14.01,2013-11-30 15:25:00,
2013-11-30 10:30:00,33.1,23.0,30.42,SSW,201,0.0,12.0,66,0.00,,,0.00,0.00,VWS V14.01,2013-11-30 15:30:00,
2013-11-30 10:35:00,33.1,23.4,30.42,SW,218,1.5,13.5,67,0.00,,,0.00,0.00,VWS V14.01,2013-11-30 15:35:00,
2013-11-30 10:40:00,33.1,23.0,30.42,SSE,153,1.5,13.5,66,0.00,,,0.00,0.00,VWS V14.01,2013-11-30 15:40:00,
2013-11-30 10:45:00,33.1,23.4,30.42,SSW,212,1.5,13.5,67,0.00,,,0.00,0.00,VWS V14.01,2013-11-30 15:45:00,
2013-11-30 10:50:00,33.3,23.2,30.42,SSW,192,3.0,7.5,66,0.00,,,0.00,0.00,VWS V14.01,2013-11-30 15:50:00,
2013-11-30 10:55:00,33.7,23.6,30.42,SW,215,6.0,9.0,66,0.00,,,0.00,0.00,VWS V14.01,2013-11-30 15:55:00,
2013-11-30 11:00:00,34.0,23.5,30.41,SSE,158,1.5,9.0,65,0.00,,,0.00,0.00,VWS V14.01,2013-11-30 16:00:00,
2013-11-30 11:05:00,34.3,24.1,30.40,SE,130,0.0,6.0,66,0.00,,,0.00,0.00,VWS V14.01,2013-11-30 16:05:00,
2013-11-30 11:10:00,34.7,24.5,30.40,SE,126,0.0,6.0,66,0.00,,,0.00,0.00,VWS V14.01,2013-11-30 16:10:00,
2013-11-30 11:15:00,34.7,24.1,30.40,SE,146,3.0,12.0,65,0.00,,,0.00,0.00,VWS V14.01,2013-11-30 16:15:00,
2013-11-30 11:20:00,34.5,24.0,30.39,ESE,110,4.5,16.5,65,0.00,,,0.00,0.00,VWS V14.01,2013-11-30 16:20:00,
2013-11-30 11:25:00,34.3,23.8,30.39,SE,130,0.0,16.5,65,0.00,,,0.00,0.00,VWS V14.01,2013-11-30 16:25:00,
2013-11-30 11:30:00,34.1,23.6,30.39,SE,143,3.0,16.5,65,0.00,,,0.00,0.00,VWS V14.01,2013-11-30 16:30:00,
2013-11-30 11:35:00,34.1,24.0,30.38,SE,139,0.0,9.0,66,0.00,,,0.00,0.00,VWS V14.01,2013-11-30 16:35:00,
2013-11-30 11:40:00,34.1,23.6,30.38,NNE,29,1.5,12.0,65,0.00,,,0.00,0.00,VWS V14.01,2013-11-30 16:40:00,
2013-11-30 11:45:00,34.2,23.7,30.37,SW,235,1.5,15.0,65,0.00,,,0.00,0.00,VWS V14.01,2013-11-30 16:45:00,
2013-11-30 11:50:00,34.3,24.1,30.37,WSW,239,4.5,9.0,66,0.00,,,0.00,0.00,VWS V14.01,2013-11-30 16:50:00,
2013-11-30 11:55:00,34.5,24.3,30.36,ESE,113,10.5,10.5,66,0.00,,,0.00,0.00,VWS V14.01,2013-11-30 16:55:00,
2013-11-30 12:00:00,34.7,24.1,30.36,SE,126,3.0,10.5,65,0.00,,,0.00,0.00,VWS V14.01,2013-11-30 17:00:00,
2013-11-30 12:05:00,35.0,24.8,30.36,SSW,209,1.5,7.5,66,0.00,,,0.00,0.00,VWS V14.01,2013-11-30 17:05:00,
2013-11-30 12:10:00,35.3,24.4,30.35,SE,133,6.0,7.5,64,0.00,,,0.00,0.00,VWS V14.01,2013-11-30 17:10:00,
2013-11-30 12:15:00,35.5,25.3,30.35,WSW,252,1.5,9.0,66,0.00,,,0.00,0.00,VWS V14.01,2013-11-30 17:15:00,
2013-11-30 12:20:00,35.9,24.9,30.35,SE,132,0.0,6.0,64,0.00,,,0.00,0.00,VWS V14.01,2013-11-30 17:20:00,
2013-11-30 12:25:00,36.5,25.5,30.35,SW,220,6.0,6.0,64,0.00,,,0.00,0.00,VWS V14.01,2013-11-30 17:25:00,
2013-11-30 12:30:00,36.8,25.4,30.34,South,169,3.0,16.5,63,0.00,,,0.00,0.00,VWS V14.01,2013-11-30 17:30:00,
2013-11-30 12:35:00,37.2,25.4,30.34,SSE,152,0.0,6.0,62,0.00,,,0.00,0.00,VWS V14.01,2013-11-30 17:35:00,
2013-11-30 12:40:00,37.7,25.1,30.34,WSW,243,3.0,15.0,60,0.00,,,0.00,0.00,VWS V14.01,2013-11-30 17:40:00,
2013-11-30 12:45:00,38.0,25.4,30.33,SSW,205,1.5,15.0,60,0.00,,,0.00,0.00,VWS V14.01,2013-11-30 17:45:00,
2013-11-30 12:50:00,38.1,25.5,30.33,WSW,240,4.5,4.5,60,0.00,,,0.00,0.00,VWS V14.01,2013-11-30 17:50:00,
2013-11-30 12:55:00,38.6,26.3,30.33,SW,221,1.5,9.0,61,0.00,,,0.00,0.00,VWS V14.01,2013-11-30 17:55:00,
2013-11-30 13:00:00,39.3,26.6,30.33,SSW,209,3.0,9.0,60,0.00,,,0.00,0.00,VWS V14.01,2013-11-30 18:00:00,
2013-11-30 13:05:00,39.4,25.5,30.33,SSW,201,1.5,12.0,57,0.00,,,0.00,0.00,VWS V14.01,2013-11-30 18:05:00,
2013-11-30 13:10:00,39.4,26.3,30.32,ESE,104,1.5,12.0,59,0.00,,,0.00,0.00,VWS V14.01,2013-11-30 18:10:00,
2013-11-30 13:15:00,39.3,26.2,30.32,ESE,123,1.5,12.0,59,0.00,,,0.00,0.00,VWS V14.01,2013-11-30 18:15:00,
2013-11-30 13:20:00,39.0,25.9,30.32,SW,231,1.5,7.5,59,0.00,,,0.00,0.00,VWS V14.01,2013-11-30 18:20:00,
2013-11-30 13:25:00,39.1,26.4,30.31,WSW,238,1.5,7.5,60,0.00,,,0.00,0.00,VWS V14.01,2013-11-30 18:25:00,
2013-11-30 13:30:00,39.3,26.2,30.31,SE,131,1.5,10.5,59,0.00,,,0.00,0.00,VWS V14.01,2013-11-30 18:30:00,
2013-11-30 13:35:00,40.0,26.8,30.30,SSW,194,4.5,6.0,59,0.00,,,0.00,0.00,VWS V14.01,2013-11-30 18:35:00,
2013-11-30 13:40:00,40.4,26.4,30.30,SSW,200,1.5,7.5,57,0.00,,,0.00,0.00,VWS V14.01,2013-11-30 18:40:00,
2013-11-30 13:45:00,40.6,27.4,30.29,WSW,239,4.5,9.0,59,0.00,,,0.00,0.00,VWS V14.01,2013-11-30 18:45:00,
2013-11-30 13:50:00,40.9,26.9,30.29,WSW,255,1.5,9.0,57,0.01,,,0.01,0.00,VWS V14.01,2013-11-30 18:50:00,
2013-11-30 13:55:00,41.2,26.7,30.29,SW,216,0.0,9.0,56,0.01,,,0.01,0.00,VWS V14.01,2013-11-30 18:55:00,
2013-11-30 14:00:00,41.4,26.5,30.28,SSW,210,1.5,9.0,55,0.01,,,0.01,0.00,VWS V14.01,2013-11-30 19:00:00,
2013-11-30 14:05:00,41.6,26.6,30.28,SSW,200,1.5,9.0,55,0.02,,,0.02,0.00,VWS V14.01,2013-11-30 19:05:00,
2013-11-30 14:10:00,41.6,27.1,30.27,South,184,3.0,9.0,56,0.02,,,0.02,0.00,VWS V14.01,2013-11-30 19:10:00,
2013-11-30 14:15:00,41.6,27.1,30.27,SSW,199,0.0,9.0,56,0.02,,,0.02,0.00,VWS V14.01,2013-11-30 19:15:00,
2013-11-30 14:20:00,41.6,27.1,30.27,South,188,0.0,7.5,56,0.02,,,0.02,0.00,VWS V14.01,2013-11-30 19:20:00,
2013-11-30 14:25:00,41.4,26.5,30.27,SSW,197,1.5,13.5,55,0.03,,,0.03,0.00,VWS V14.01,2013-11-30 19:25:00,
2013-11-30 14:30:00,41.1,26.2,30.26,East,94,6.0,13.5,55,0.03,,,0.03,0.00,VWS V14.01,2013-11-30 19:30:00,
2013-11-30 14:35:00,41.1,26.6,30.25,SE,134,6.0,7.5,56,0.03,,,0.03,0.00,VWS V14.01,2013-11-30 19:35:00,
2013-11-30 14:40:00,41.2,26.3,30.25,SSE,150,0.0,12.0,55,0.03,,,0.03,0.00,VWS V14.01,2013-11-30 19:40:00,
2013-11-30 14:45:00,41.4,26.9,30.25,West,271,3.0,12.0,56,0.03,,,0.03,0.00,VWS V14.01,2013-11-30 19:45:00,
2013-11-30 14:50:00,41.5,27.0,30.25,WSW,238,3.0,16.5,56,0.04,,,0.04,0.00,VWS V14.01,2013-11-30 19:50:00,
2013-11-30 14:55:00,41.7,26.7,30.25,SE,132,1.5,16.5,55,0.04,,,0.04,0.00,VWS V14.01,2013-11-30 19:55:00,
2013-11-30 15:00:00,41.6,27.1,30.25,SSW,207,4.5,16.5,56,0.04,,,0.04,0.00,VWS V14.01,2013-11-30 20:00:00,
2013-11-30 15:05:00,41.7,27.2,30.25,SE,125,0.0,7.5,56,0.03,,,0.04,0.00,VWS V14.01,2013-11-30 20:05:00,
2013-11-30 15:10:00,41.5,27.0,30.25,SE,146,0.0,7.5,56,0.03,,,0.04,0.00,VWS V14.01,2013-11-30 20:10:00,
2013-11-30 15:15:00,41.6,27.9,30.25,SSW,212,0.0,7.5,58,0.03,,,0.04,0.00,VWS V14.01,2013-11-30 20:15:00,
2013-11-30 15:20:00,41.7,27.6,30.25,SE,129,1.5,4.5,57,0.02,,,0.04,0.00,VWS V14.01,2013-11-30 20:20:00,
2013-11-30 15:25:00,41.3,27.2,30.25,SE,140,0.0,4.5,57,0.03,,,0.05,0.00,VWS V14.01,2013-11-30 20:25:00,
2013-11-30 15:30:00,41.1,27.5,30.25,SSW,208,4.5,4.5,58,0.03,,,0.05,0.00,VWS V14.01,2013-11-30 20:30:00,
2013-11-30 15:35:00,40.9,26.9,30.25,South,181,1.5,7.5,57,0.02,,,0.05,0.00,VWS V14.01,2013-11-30 20:35:00,
2013-11-30 15:40:00,40.6,26.6,30.24,SSE,151,0.0,10.5,57,0.02,,,0.05,0.00,VWS V14.01,2013-11-30 20:40:00,
2013-11-30 15:45:00,40.4,26.8,30.25,South,184,0.0,10.5,58,0.02,,,0.05,0.00,VWS V14.01,2013-11-30 20:45:00,
2013-11-30 15:50:00,40.4,27.2,30.24,SE,145,1.5,6.0,59,0.02,,,0.05,0.00,VWS V14.01,2013-11-30 20:50:00,
2013-11-30 15:55:00,40.1,26.5,30.24,South,188,1.5,9.0,58,0.02,,,0.05,0.00,VWS V14.01,2013-11-30 20:55:00,
2013-11-30 16:00:00,40.0,26.8,30.24,SW,216,4.5,9.0,59,0.02,,,0.05,0.00,VWS V14.01,2013-11-30 21:00:00,
2013-11-30 16:05:00,39.8,27.1,30.24,SE,143,1.5,3.0,60,0.01,,,0.05,0.00,VWS V14.01,2013-11-30 21:05:00,
2013-11-30 16:10:00,39.8,27.1,30.24,SE,132,0.0,6.0,60,0.01,,,0.05,0.00,VWS V14.01,2013-11-30 21:10:00,
2013-11-30 16:15:00,39.7,27.4,30.24,SSW,195,0.0,6.0,61,0.01,,,0.05,0.00,VWS V14.01,2013-11-30 21:15:00,
2013-11-30 16:20:00,39.5,27.2,30.24,East,81,0.0,1.5,61,0.01,,,0.05,0.00,VWS V14.01,2013-11-30 21:20:00,
2013-11-30 16:25:00,39.1,27.2,30.24,West,261,0.0,4.5,62,0.01,,,0.05,0.00,VWS V14.01,2013-11-30 21:25:00,
2013-11-30 16:30:00,38.8,26.9,30.24,WSW,239,0.0,7.5,62,0.01,,,0.05,0.00,VWS V14.01,2013-11-30 21:30:00,
2013-11-30 16:35:00,38.5,27.0,30.24,WSW,245,0.0,1.5,63,0.00,,,0.05,0.00,VWS V14.01,2013-11-30 21:35:00,
2013-11-30 16:40:00,38.2,27.1,30.24,SW,216,0.0,1.5,64,0.00,,,0.05,0.00,VWS V14.01,2013-11-30 21:40:00,
2013-11-30 16:45:00,37.9,27.2,30.24,ENE,76,0.0,3.0,65,0.00,,,0.05,0.00,VWS V14.01,2013-11-30 21:45:00,
2013-11-30 16:50:00,37.6,26.9,30.23,South,169,0.0,4.5,65,0.00,,,0.05,0.00,VWS V14.01,2013-11-30 21:50:00,
2013-11-30 16:55:00,37.3,27.0,30.23,WNW,295,0.0,4.5,66,0.00,,,0.05,0.00,VWS V14.01,2013-11-30 21:55:00,
2013-11-30 17:00:00,37.1,26.8,30.23,SSE,160,0.0,4.5,66,0.00,,,0.05,0.00,VWS V14.01,2013-11-30 22:00:00,
2013-11-30 17:05:00,36.9,27.0,30.23,SW,223,0.0,3.0,67,0.00,,,0.05,0.00,VWS V14.01,2013-11-30 22:05:00,
2013-11-30 17:09:00,36.6,27.0,30.23,SSE,166,0.0,3.0,68,0.00,,,0.05,0.00,VWS V14.01,2013-11-30 22:09:00,
2013-11-30 17:14:00,36.3,26.8,30.23,SE,138,0.0,3.0,68,0.00,,,0.05,0.00,VWS V14.01,2013-11-30 22:14:00,
2013-11-30 17:15:00,36.3,27.1,30.23,WSW,245,0.0,3.0,69,0.00,,,0.05,0.00,VWS V14.01,2013-11-30 22:15:00,
2013-11-30 17:19:00,36.1,26.9,30.23,SW,219,1.5,4.5,69,0.00,,,0.05,0.00,VWS V14.01,2013-11-30 22:19:00,
2013-11-30 17:24:00,36.1,26.9,30.23,South,176,0.0,4.5,69,0.00,,,0.05,0.00,VWS V14.01,2013-11-30 22:24:00,
2013-11-30 17:29:00,36.0,26.8,30.23,ESE,122,0.0,4.5,69,0.00,,,0.05,0.00,VWS V14.01,2013-11-30 22:29:00,
2013-11-30 17:30:00,36.0,26.8,30.23,West,261,0.0,4.5,69,0.00,,,0.05,0.00,VWS V14.01,2013-11-30 22:30:00,
2013-11-30 17:34:00,36.0,26.8,30.23,South,188,0.0,6.0,69,0.00,,,0.05,0.00,VWS V14.01,2013-11-30 22:34:00,
2013-11-30 17:39:00,36.1,26.9,30.23,SW,227,0.0,6.0,69,0.00,,,0.05,0.00,VWS V14.01,2013-11-30 22:39:00,
2013-11-30 17:44:00,36.0,26.8,30.23,SE,139,1.5,7.5,69,0.00,,,0.05,0.00,VWS V14.01,2013-11-30 22:44:00,
2013-11-30 17:45:00,36.0,26.8,30.23,SSE,147,0.0,7.5,69,0.00,,,0.05,0.00,VWS V14.01,2013-11-30 22:45:00,
2013-11-30 17:49:00,35.9,27.1,30.23,ESE,122,0.0,3.0,70,0.00,,,0.05,0.00,VWS V14.01,2013-11-30 22:49:00,
2013-11-30 17:54:00,35.6,26.8,30.22,SE,143,0.0,4.5,70,0.00,,,0.05,0.00,VWS V14.01,2013-11-30 22:54:00,
2013-11-30 17:59:00,35.5,27.0,30.22,SSW,201,3.0,6.0,71,0.00,,,0.05,0.00,VWS V14.01,2013-11-30 22:59:00,
2013-11-30 18:00:00,35.5,26.7,30.22,WNW,285,1.5,6.0,70,0.00,,,0.05,0.00,VWS V14.01,2013-11-30 23:00:00,
2013-11-30 18:04:00,35.5,26.7,30.22,East,98,6.0,6.0,70,0.00,,,0.05,0.00,VWS V14.01,2013-11-30 23:04:00,
2013-11-30 18:09:00,35.6,26.8,30.22,SE,146,0.0,6.0,70,0.00,,,0.05,0.00,VWS V14.01,2013-11-30 23:09:00,
2013-11-30 18:14:00,35.5,27.0,30.22,ESE,122,1.5,6.0,71,0.00,,,0.05,0.00,VWS V14.01,2013-11-30 23:14:00,
2013-11-30 18:15:00,35.4,27.0,30.22,SSW,193,0.0,6.0,71,0.00,,,0.05,0.00,VWS V14.01,2013-11-30 23:15:00,
2013-11-30 18:19:00,35.4,27.0,30.22,ESE,109,3.0,4.5,71,0.00,,,0.05,0.00,VWS V14.01,2013-11-30 23:19:00,
2013-11-30 18:24:00,35.5,26.7,30.21,SE,134,4.5,6.0,70,0.00,,,0.05,0.00,VWS V14.01,2013-11-30 23:24:00,
2013-11-30 18:29:00,35.7,26.9,30.21,SSE,148,3.0,7.5,70,0.00,,,0.05,0.00,VWS V14.01,2013-11-30 23:29:00,
2013-11-30 18:30:00,35.7,26.9,30.21,ESE,108,0.0,9.0,70,0.00,,,0.05,0.00,VWS V14.01,2013-11-30 23:30:00,
2013-11-30 18:34:00,35.6,27.1,30.21,SW,221,3.0,3.0,71,0.00,,,0.05,0.00,VWS V14.01,2013-11-30 23:34:00,
2013-11-30 18:39:00,35.4,27.0,30.21,SSE,148,6.0,6.0,71,0.00,,,0.05,0.00,VWS V14.01,2013-11-30 23:39:00,
2013-11-30 18:44:00,35.7,26.9,30.21,SE,144,0.0,9.0,70,0.00,,,0.05,0.00,VWS V14.01,2013-11-30 23:44:00,
2013-11-30 18:45:00,35.8,27.0,30.21,SW,236,0.0,10.5,70,0.00,,,0.05,0.00,VWS V14.01,2013-11-30 23:45:00,
2013-11-30 18:49:00,35.8,27.3,30.21,SSW,198,0.0,6.0,71,0.00,,,0.05,0.00,VWS V14.01,2013-11-30 23:49:00,
2013-11-30 18:54:00,35.6,27.1,30.21,SE,144,3.0,7.5,71,0.00,,,0.05,0.00,VWS V14.01,2013-11-30 23:54:00,
2013-11-30 18:59:00,35.9,27.4,30.20,SE,134,0.0,10.5,71,0.00,,,0.05,0.00,VWS V14.01,2013-11-30 23:59:00,
2013-11-30 19:00:00,35.9,27.4,30.21,WSW,249,1.5,10.5,71,0.00,,,0.05,0.00,VWS V14.01,2013-12-01 00:00:00,
2013-11-30 19:04:00,35.9,27.4,30.20,NE,46,3.0,6.0,71,0.00,,,0.05,0.00,VWS V14.01,2013-12-01 00:04:00,
2013-11-30 19:09:00,35.9,27.4,30.20,SSW,202,4.5,9.0,71,0.00,,,0.05,0.00,VWS V14.01,2013-12-01 00:09:00,
2013-11-30 19:14:00,36.0,27.5,30.20,NW,314,1.5,12.0,71,0.00,,,0.05,0.00,VWS V14.01,2013-12-01 00:14:00,
2013-11-30 19:15:00,36.0,27.5,30.21,WNW,289,1.5,12.0,71,0.00,,,0.05,0.00,VWS V14.01,2013-12-01 00:15:00,
2013-11-30 19:19:00,35.9,27.4,30.20,West,265,4.5,6.0,71,0.00,,,0.05,0.00,VWS V14.01,2013-12-01 00:19:00,
2013-11-30 19:24:00,36.1,27.6,30.20,SE,126,3.0,6.0,71,0.00,,,0.05,0.00,VWS V14.01,2013-12-01 00:24:00,
2013-11-30 19:29:00,36.1,27.6,30.21,SE,128,4.5,7.5,71,0.00,,,0.05,0.00,VWS V14.01,2013-12-01 00:29:00,
2013-11-30 19:30:00,36.2,27.4,30.20,ESE,115,7.5,7.5,70,0.00,,,0.05,0.00,VWS V14.01,2013-12-01 00:30:00,
2013-11-30 19:34:00,36.3,27.5,30.20,SSE,150,0.0,6.0,70,0.00,,,0.05,0.00,VWS V14.01,2013-12-01 00:34:00,
2013-11-30 19:39:00,36.1,27.6,30.20,SSW,196,3.0,7.5,71,0.00,,,0.05,0.00,VWS V14.01,2013-12-01 00:39:00,
2013-11-30 19:44:00,36.1,27.6,30.20,SE,143,1.5,7.5,71,0.00,,,0.05,0.00,VWS V14.01,2013-12-01 00:44:00,
2013-11-30 19:45:00,36.2,27.7,30.20,SSE,154,0.0,7.5,71,0.00,,,0.05,0.00,VWS V14.01,2013-12-01 00:45:00,
2013-11-30 19:49:00,36.2,27.7,30.20,SSE,167,0.0,7.5,71,0.00,,,0.05,0.00,VWS V14.01,2013-12-01 00:49:00,
2013-11-30 19:54:00,36.3,27.8,30.20,SSW,206,0.0,7.5,71,0.00,,,0.05,0.00,VWS V14.01,2013-12-01 00:54:00,
2013-11-30 19:59:00,36.3,27.8,30.19,SE,135,3.0,15.0,71,0.00,,,0.05,0.00,VWS V14.01,2013-12-01 00:59:00,
2013-11-30 20:00:00,36.3,27.8,30.19,SSW,195,0.0,15.0,71,0.00,,,0.05,0.00,VWS V14.01,2013-12-01 01:00:00,
2013-11-30 20:04:00,36.3,27.8,30.19,SSW,205,1.5,10.5,71,0.00,,,0.05,0.00,VWS V14.01,2013-12-01 01:04:00,
2013-11-30 20:09:00,36.3,27.8,30.19,SSE,159,3.0,10.5,71,0.00,,,0.05,0.00,VWS V14.01,2013-12-01 01:09:00,
2013-11-30 20:14:00,36.3,27.8,30.19,SW,219,3.0,10.5,71,0.00,,,0.05,0.00,VWS V14.01,2013-12-01 01:14:00,
2013-11-30 20:15:00,36.3,27.8,30.19,SE,141,1.5,10.5,71,0.00,,,0.05,0.00,VWS V14.01,2013-12-01 01:15:00,
2013-11-30 20:19:00,36.4,27.9,30.19,ESE,104,1.5,13.5,71,0.01,,,0.06,0.00,VWS V14.01,2013-12-01 01:19:00,
2013-11-30 20:24:00,36.3,27.8,30.19,SW,234,9.0,13.5,71,0.01,,,0.06,0.00,VWS V14.01,2013-12-01 01:24:00,
2013-11-30 20:29:00,36.4,27.9,30.19,WNW,302,3.0,13.5,71,0.01,,,0.06,0.00,VWS V14.01,2013-12-01 01:29:00,
2013-11-30 20:30:00,36.4,27.9,30.18,North,359,3.0,13.5,71,0.01,,,0.06,0.00,VWS V14.01,2013-12-01 01:30:00,
2013-11-30 20:34:00,36.4,27.9,30.19,SSE,155,3.0,6.0,71,0.01,,,0.06,0.00,VWS V14.01,2013-12-01 01:34:00,
2013-11-30 20:39:00,36.5,28.0,30.19,SSW,203,15.0,15.0,71,0.01,,,0.06,0.00,VWS V14.01,2013-12-01 01:39:00,
2013-11-30 20:43:00,36.5,28.0,30.19,South,191,4.5,15.0,71,0.01,,,0.06,0.00,VWS V14.01,2013-12-01 01:43:00,
2013-11-30 20:45:00,36.4,27.9,30.19,South,186,3.0,15.0,71,0.01,,,0.06,0.00,VWS V14.01,2013-12-01 01:45:00,
2013-11-30 20:48:00,36.3,27.8,30.18,South,170,3.0,10.5,71,0.01,,,0.06,0.00,VWS V14.01,2013-12-01 01:48:00,
2013-11-30 20:53:00,36.3,27.8,30.18,SSW,196,3.0,18.0,71,0.01,,,0.06,0.00,VWS V14.01,2013-12-01 01:53:00,
2013-11-30 20:58:00,36.4,27.9,30.18,SSE,153,0.0,18.0,71,0.01,,,0.06,0.00,VWS V14.01,2013-12-01 01:58:00,
2013-11-30 21:00:00,36.3,27.8,30.19,SSE,150,0.0,18.0,71,0.01,,,0.06,0.00,VWS V14.01,2013-12-01 02:00:00,
2013-11-30 21:03:00,36.2,27.7,30.19,WSW,252,9.0,9.0,71,0.01,,,0.06,0.00,VWS V14.01,2013-12-01 02:03:00,
2013-11-30 21:08:00,36.3,27.8,30.19,WSW,238,1.5,10.5,71,0.01,,,0.06,0.00,VWS V14.01,2013-12-01 02:08:00,
2013-11-30 21:13:00,36.4,27.9,30.19,SW,217,1.5,10.5,71,0.01,,,0.06,0.00,VWS V14.01,2013-12-01 02:13:00,
2013-11-30 21:15:00,36.4,27.9,30.19,SSE,164,0.0,10.5,71,0.01,,,0.06,0.00,VWS V14.01,2013-12-01 02:15:00,
2013-11-30 21:18:00,36.4,28.2,30.19,SSW,212,0.0,7.5,72,0.01,,,0.06,0.00,VWS V14.01,2013-12-01 02:18:00,
2013-11-30 21:23:00,36.3,28.1,30.19,SW,214,1.5,10.5,72,0.01,,,0.06,0.00,VWS V14.01,2013-12-01 02:23:00,
2013-11-30 21:28:00,36.2,28.1,30.19,West,278,3.0,10.5,72,0.01,,,0.06,0.00,VWS V14.01,2013-12-01 02:28:00,
2013-11-30 21:30:00,36.1,28.0,30.19,SSW,202,1.5,10.5,72,0.01,,,0.06,0.00,VWS V14.01,2013-12-01 02:30:00,
2013-11-30 21:33:00,36.0,27.9,30.18,SW,221,6.0,6.0,72,0.00,,,0.06,0.00,VWS V14.01,2013-12-01 02:33:00,
2013-11-30 21:38:00,36.0,27.9,30.19,SE,133,1.5,9.0,72,0.00,,,0.06,0.00,VWS V14.01,2013-12-01 02:38:00,
2013-11-30 21:43:00,36.1,28.0,30.19,South,185,3.0,10.5,72,0.00,,,0.06,0.00,VWS V14.01,2013-12-01 02:43:00,
2013-11-30 21:45:00,36.0,28.2,30.18,WSW,239,3.0,10.5,73,0.00,,,0.06,0.00,VWS V14.01,2013-12-01 02:45:00,
2013-11-30 21:48:00,36.0,27.9,30.18,SE,138,1.5,4.5,72,0.00,,,0.06,0.00,VWS V14.01,2013-12-01 02:48:00,
2013-11-30 21:52:00,36.1,28.0,30.18,SSW,206,4.5,6.0,72,0.00,,,0.06,0.00,VWS V14.01,2013-12-01 02:52:00,
2013-11-30 21:57:00,36.1,28.0,30.18,ESE,110,3.0,9.0,72,0.00,,,0.06,0.00,VWS V14.01,2013-12-01 02:57:00,
2013-11-30 22:00:00,36.2,28.1,30.18,SW,219,0.0,9.0,72,0.00,,,0.06,0.00,VWS V14.01,2013-12-01 03:00:00,
2013-11-30 22:02:00,36.2,28.1,30.18,SSE,154,0.0,3.0,72,0.00,,,0.06,0.00,VWS V14.01,2013-12-01 03:02:00,
2013-11-30 22:07:00,36.2,28.4,30.18,WSW,240,0.0,10.5,73,0.00,,,0.06,0.00,VWS V14.01,2013-12-01 03:07:00,
2013-11-30 22:12:00,36.5,28.4,30.18,SSW,198,1.5,10.5,72,0.00,,,0.06,0.00,VWS V14.01,2013-12-01 03:12:00,
2013-11-30 22:15:00,36.7,28.5,30.18,SSE,165,1.5,10.5,72,0.00,,,0.06,0.00,VWS V14.01,2013-12-01 03:15:00,
2013-11-30 22:17:00,36.7,28.5,30.18,SSE,157,0.0,3.0,72,0.00,,,0.06,0.00,VWS V14.01,2013-12-01 03:17:00,
2013-11-30 22:22:00,36.7,28.5,30.18,SE,139,1.5,7.5,72,0.00,,,0.06,0.00,VWS V14.01,2013-12-01 03:22:00,
2013-11-30 22:27:00,36.7,28.5,30.17,SSE,161,3.0,7.5,72,0.00,,,0.06,0.00,VWS V14.01,2013-12-01 03:27:00,
2013-11-30 22:30:00,36.7,28.5,30.17,West,264,3.0,10.5,72,0.00,,,0.06,0.00,VWS V14.01,2013-12-01 03:30:00,
2013-11-30 22:32:00,36.9,28.7,30.17,SE,131,3.0,6.0,72,0.00,,,0.06,0.00,VWS V14.01,2013-12-01 03:32:00,
2013-11-30 22:37:00,37.0,28.8,30.17,SW,218,1.5,6.0,72,0.00,,,0.06,0.00,VWS V14.01,2013-12-01 03:37:00,
2013-11-30 22:42:00,37.0,28.8,30.17,SSE,148,0.0,7.5,72,0.00,,,0.06,0.00,VWS V14.01,2013-12-01 03:42:00,
2013-11-30 22:45:00,37.1,28.9,30.17,SSW,197,6.0,7.5,72,0.00,,,0.06,0.00,VWS V14.01,2013-12-01 03:45:00,
2013-11-30 22:47:00,37.1,28.9,30.17,South,172,3.0,9.0,72,0.00,,,0.06,0.00,VWS V14.01,2013-12-01 03:47:00,
2013-11-30 22:52:00,37.3,28.8,30.17,ESE,115,0.0,9.0,71,0.00,,,0.06,0.00,VWS V14.01,2013-12-01 03:52:00,
2013-11-30 22:57:00,37.3,28.8,30.16,SW,218,7.5,12.0,71,0.00,,,0.06,0.00,VWS V14.01,2013-12-01 03:57:00,
2013-11-30 23:00:00,37.2,29.0,30.16,ESE,110,4.5,12.0,72,0.00,,,0.06,0.00,VWS V14.01,2013-12-01 04:00:00,
2013-11-30 23:02:00,37.2,28.7,30.17,SSW,192,1.5,4.5,71,0.00,,,0.06,0.00,VWS V14.01,2013-12-01 04:02:00,
2013-11-30 23:07:00,37.3,29.1,30.17,SW,223,1.5,9.0,72,0.00,,,0.06,0.00,VWS V14.01,2013-12-01 04:07:00,
2013-11-30 23:12:00,37.4,28.9,30.16,SSW,210,9.0,10.5,71,0.00,,,0.06,0.00,VWS V14.01,2013-12-01 04:12:00,
2013-11-30 23:15:00,37.5,29.0,30.17,SSE,167,1.5,10.5,71,0.00,,,0.06,0.00,VWS V14.01,2013-12-01 04:15:00,
2013-11-30 23:17:00,37.4,28.9,30.16,SE,140,1.5,3.0,71,0.00,,,0.06,0.00,VWS V14.01,2013-12-01 04:17:00,
2013-11-30 23:22:00,37.4,28.9,30.16,SSW,195,0.0,15.0,71,0.00,,,0.06,0.00,VWS V14.01,2013-12-01 04:22:00,
2013-11-30 23:27:00,37.5,29.0,30.16,SE,126,1.5,15.0,71,0.00,,,0.06,0.00,VWS V14.01,2013-12-01 04:27:00,
2013-11-30 23:30:00,37.7,29.2,30.16,ESE,109,6.0,15.0,71,0.00,,,0.06,0.00,VWS V14.01,2013-12-01 04:30:00,
2013-11-30 23:32:00,37.7,29.2,30.16,WSW,244,1.5,7.5,71,0.00,,,0.06,0.00,VWS V14.01,2013-12-01 04:32:00,
2013-11-30 23:37:00,37.8,28.9,30.16,WSW,254,1.5,15.0,70,0.00,,,0.06,0.00,VWS V14.01,2013-12-01 04:37:00,
2013-11-30 23:42:00,37.9,29.0,30.15,South,191,3.0,15.0,70,0.00,,,0.06,0.00,VWS V14.01,2013-12-01 04:42:00,
2013-11-30 23:45:00,37.7,29.2,30.15,SSW,199,1.5,15.0,71,0.00,,,0.06,0.00,VWS V14.01,2013-12-01 04:45:00,
2013-11-30 23:47:00,37.7,29.2,30.15,SW,236,1.5,9.0,71,0.00,,,0.06,0.00,VWS V14.01,2013-12-01 04:47:00,
2013-11-30 23:52:00,37.6,29.1,30.15,SE,126,1.5,9.0,71,0.00,,,0.06,0.00,VWS V14.01,2013-12-01 04:52:00,
2013-11-30 23:57:00,37.6,29.1,30.15,SW,217,1.5,9.0,71,0.00,,,0.06,0.00,VWS V14.01,2013-12-01 04:57:00,